Regional Weather Roundup
Issued by NWS

Home | Current Version | Previous Version | Graphics & Text | Print | Product List | Glossary On
Versions: 1 2 3 4 5 6 7 8 9 10 11 12 13 14 15 16 17 18 19 20 21 22 23 24 25 26 27 28 29 30 31 32 33 34 35 36 37 38 39 40 41 42 43 44 45 46 47 48 49 50
000
ASUS43 KMPX 030501
RWRMN
WEATHER ROUNDUP FOR MINNESOTA
NATIONAL WEATHER SERVICE TWIN CITIES/CHANHASSEN MN
1100 PM CST MON MAR 02 2015


NOTE: "FAIR" INDICATES FEW OR NO CLOUDS BELOW 12,000 FEET WITH NO
SIGNIFICANT WEATHER AND/OR OBSTRUCTIONS TO VISIBILITY. N/A MEANS
CURRENT SKY AND/OR WEATHER CONDITIONS ARE NOT AVAILABLE.

MNZ060>063-068>070-030600-
   Twin Cities Metro

CITY           SKY/WX    TMP DP  RH WIND       PRES   REMARKS
TWIN CITIES    CLOUDY    21  11  65 SE7       30.09F WCI  12
ST PAUL        CLOUDY    21  12  68 SE9       30.11F WCI  11
CRYSTAL        CLOUDY    22  12  65 S12       30.07F WCI  10
BLAINE         CLOUDY    23  14  68 SE10      30.06F WCI  12
LAKEVILLE      FAIR      19  12  73 SE7       30.08F WCI  10
EDEN PRAIRIE   CLOUDY    22  11  62 SE9       30.06F WCI  12
SOUTH ST PAUL  CLOUDY    22  13  67 SE7       30.10F WCI  14
LAKE ELMO      CLOUDY    23  12  63 S6        30.10F WCI  16
$$
MNZ001>005-007-008-013>017-022>024-027-028-030600-
   Northwest Minnesota

CITY           SKY/WX    TMP DP  RH WIND       PRES   REMARKS
BEMIDJI        CLOUDY    23  13  67 S14G23    29.85F WCI  11
HALLOCK        FAIR      19  16  86 S18       29.74F WCI   4
ROSEAU         FAIR      25  18  74 S20       29.75F WCI  11
WARROAD        CLOUDY    27  16  63 S12G20    29.76F WCI  16
THIEF RVR FALL FAIR      25  19  80 S17       29.78F WCI  11
CROOKSTON      FAIR      25  19  80 S22G30    29.80F WCI  10
FOSSTON        CLOUDY    25  18  74 S21       29.80F WCI  10
DETROIT LAKES  FAIR      27  19  74 S21       29.84F WCI  13
MOORHEAD       FAIR      27  21  80 S23G29    29.83F WCI  12
PARK RAPIDS    CLOUDY    23  13  65 S20G29    29.87F WCI   8
MAHNOMEN       CLOUDY    25  17  72 S17G29    29.82F WCI  11
$$
MNZ006-009>011-018-025>026-030600-
   North Central Minnesota

CITY           SKY/WX    TMP DP  RH WIND       PRES   REMARKS
BAUDETTE       CLOUDY    24  11  57 S16       29.78F WCI  11
FLAG ISLAND    CLOUDY    19  14  79 S13       29.76F WCI   7
INTL FALLS     CLOUDY    24   8  50 S13G23    29.84F WCI  12
WASKISH        CLOUDY    25  12  58 S8        29.83F WCI  16
BIG FORK       CLOUDY    23  10  58 S15       29.89F WCI  10
LONGVILLE      CLOUDY    21  10  63 S12G21    29.93S WCI   9
GRAND RAPIDS   CLOUDY    21   7  53 S18       29.91F WCI   6
CRANE LAKE     CLOUDY    21   3  45 S10       29.92F WCI  10
ORR            CLOUDY    21   3  45 S10G16    29.88F WCI  10
COOK           CLOUDY    21   7  53 S10G17    29.92F WCI  10
WALKER         CLOUDY    23  11  60 S12G22    29.88F WCI  12
$$
MNZ012-019>021-037-030600-
   Northeast Minnesota

CITY           SKY/WX    TMP DP  RH WIND       PRES   REMARKS
DULUTH         CLOUDY    20   4  50 S14       29.99F WCI   7
ELY            CLOUDY    19   3  49 S9        29.95F WCI   9
HIBBING        CLOUDY    21   5  50 S7        29.94F WCI  12
EVELETH        FAIR      21   7  53 S9        29.96F WCI  11
DULUTH HARBOR  CLOUDY    23   7  50 SW8       30.06F WCI  14
TWO HARBORS    CLOUDY    25   9  50 SW8       30.01F WCI  16
SILVER BAY     CLOUDY    23   9  54 S8        30.01F WCI  14
GRAND MARAIS     N/A     27  13  55 SW24      30.05F WCI  12
G MARAIS ARPRT MOCLDY    18   5  57 S7        29.98F WCI   8
$$
MNZ029>031-032-039>041-046>048-054>057-064-030600-
   West Central Minnesota

CITY           SKY/WX    TMP DP  RH WIND       PRES   REMARKS
FERGUS FALLS   CLOUDY    25  18  74 S21G26    29.90F WCI  10
WHEATON        CLOUDY    25  19  80 SE21G28   29.88F WCI  10
MORRIS         CLOUDY    25  19  80 S17G25    29.90F WCI  11
ALEXANDRIA     CLOUDY    23  17  78 S17G28    29.91F WCI   9
ELBOW LAKE     CLOUDY    24  19  84 S22G29    29.88F WCI   8
WADENA         CLOUDY    21  16  79 S15       29.90F WCI   8
GLENWOOD       FAIR      23  19  86 S20       29.93F WCI   8
APPLETON       CLOUDY    27  21  80 S15G22    29.92F WCI  15
BENSON         FLURRIES  25  19  80 S15G23    29.93F WCI  12
ORTONVILLE     CLOUDY    27  21  80 SE17G23   29.89F WCI  14
MADISON        FAIR      27  23  86 SE18G26   29.92F WCI  13
WILLMAR        CLOUDY    25  19  80 S16       29.98F WCI  12
$$
MNZ033>034-036-042>043-049>051-058-059-030600-
   Central Minnesota

CITY           SKY/WX    TMP DP  RH WIND       PRES   REMARKS
ST CLOUD       CLOUDY    21  12  68 SE13      30.00F WCI   9
SAUK CENTRE    CLOUDY    22  16  76 S18       29.95F WCI   8
PAYNESVILLE    CLOUDY    20  15  79 E17G23    29.97F WCI   5
AITKIN         CLOUDY    25  10  54 S10G17    29.95F WCI  15
PINE RIVER     CLOUDY    21  12  68 S14G20    29.96F WCI   8
BRAINERD       CLOUDY    21  11  65 S18G24    29.95F WCI   6
STAPLES        CLOUDY    21  12  68 S13       29.92F WCI   9
LITTLE FALLS   MOCLDY    23  12  63 SE8       29.97F WCI  14
LITCHFIELD     CLOUDY    21  16  79 SE8       30.01F WCI  12
BUFFALO        MOCLDY    22  13  67 SE10      30.04F WCI  11
MAPLE LAKE     CLOUDY    23  16  74 SE9G16    30.03F WCI  13
$$
MNZ037-044-045-052-053-030600-
   East Central Minnesota

CITY           SKY/WX    TMP DP  RH WIND       PRES   REMARKS
PRINCETON      CLOUDY    21  12  68 SE8       30.02F WCI  12
MORA           CLOUDY    21   9  58 S8        30.05F WCI  12
RUSH CITY      CLOUDY    21  10  61 S9        30.06F WCI  10
MOOSE LAKE     CLOUDY    21   7  53 S9G17     30.00F WCI  11
HINCKLEY       CLOUDY    21  10  63 S12       30.05F WCI   9
CLOQUET        CLOUDY    19   5  53 S9        30.00F WCI   9
MCGREGOR       CLOUDY    23  10  58 S9        29.98F WCI  13
$$
MNZ071>073-080-081-089-090-097-098-030600-
   Southwest Minnesota

CITY           SKY/WX    TMP DP  RH WIND       PRES   REMARKS
MONTEVIDEO     LGT SNOW  25  21  86 S13G23    29.95F WCI  13
GRANITE FALLS  LGT SNOW  25  21  87 SE14G21   29.98F WCI  13
CANBY          CLOUDY    26  23  89 SE12      29.92F WCI  16
MARSHALL       CLOUDY    25  18  74 S15       29.95F WCI  12
REDWOOD FALLS  CLOUDY    24  18  77 SE17      29.99F WCI  11
OLIVIA         FAIR      23  19  86 SE13      29.99F WCI  11
PIPESTONE      CLOUDY    27  19  74 S20       29.89F WCI  13
WINDOM         CLOUDY    23  19  86 SE14      29.96F WCI  11
WORTHINGTON    CLOUDY    25  18  74 S15       29.96F WCI  12
JACKSON        CLOUDY    25  21  86 SE9G16    29.98F WCI  15
TRACY          CLOUDY    26  21  79 S10       29.95F WCI  17
SLAYTON        CLOUDY    25  19  77 SE15      29.93F WCI  12
$$
MNZ065>067-074>077-082>085-091>093-030600-
   South Central Minnesota

CITY           SKY/WX    TMP DP  RH WIND       PRES   REMARKS
MANKATO        CLOUDY    21  12  68 SE12      30.04F WCI   9
NEW ULM        CLOUDY    21  16  79 SE10      30.02F WCI  10
ST JAMES       CLOUDY    25  19  80 SE12G17   30.02F WCI  14
FAIRMONT       CLOUDY    23  16  74 SE15      30.00F WCI  10
GLENCOE        CLOUDY    23  17  78 SE8       30.04F WCI  14
FARIBAULT      CLOUDY    21  14  73 SE7       30.06F WCI  13
OWATONNA       CLOUDY    21  12  68 SE15      30.05F WCI   8
ALBERT LEA     CLOUDY    21  16  79 SE12      30.06F WCI   9
$$
MNZ078>079-086>088-094>096-030600-
   Southeast Minnesota

CITY           SKY/WX    TMP DP  RH WIND       PRES   REMARKS
ROCHESTER      CLOUDY    20  13  74 S13       30.08F WCI   7
RED WING       CLOUDY    23   9  54 SE6       30.11F WCI  16
STANTON        FAIR      23  13  65 S7        30.07F WCI  14
DODGE CENTER   CLOUDY    21  12  68 S12       30.06F WCI   9
WINONA         MOCLDY    27  16  63 SE5       30.15F WCI  21
AUSTIN         CLOUDY    21  14  73 SE6       30.07F WCI  14
PRESTON        CLOUDY    20  13  73 SE5       30.10F WCI  14
$$
ABBREVIATIONS USED IN REMARKS
   TC - TEMPERATURES IN CELSIUS
  WCI - WIND CHILL INDEX
   HX - HEAT INDEX
  VSB - VISIBILITY
$$


USA.gov is the U.S. government's official web portal to all federal, state and local government web resources and services.